SWA17 KCVG-KATL

Flight info

Callsign SWA17
Flight time N/A
Altitude 37000
Route KENLN6 KENLN KTRYN ONDRE1
Aircraft B38M/M-SDE1FGHILORVWXY/HB1

Departure

Time 2026-04-30 00:56
Airport Cincinnati Northern Kentucky International Airport (KCVG)

Arrival

Time N/A
Airport Hartsfield Jackson Atlanta International Airport (KATL)
Time Latitude Longitude Altitude Speed Heading
2026-04-30 00:32 39.05284 -84.65454 892 ft 0 kts 292°
2026-04-30 00:48 39.05282 -84.65447 892 ft 2 kts 298°
2026-04-30 00:48 39.05272 -84.65431 892 ft 2 kts 321°
2026-04-30 00:49 39.05257 -84.65421 892 ft 2 kts 347°
2026-04-30 00:49 39.05241 -84.65419 892 ft 2 kts
2026-04-30 00:49 39.05225 -84.65426 892 ft 2 kts 30°
2026-04-30 00:49 39.05215 -84.65437 891 ft 1 kts 63°
2026-04-30 00:50 39.05213 -84.65439 891 ft 0 kts 73°
2026-04-30 00:51 39.05215 -84.65408 892 ft 11 kts 90°
2026-04-30 00:52 39.05214 -84.65258 894 ft 20 kts 90°
2026-04-30 00:52 39.05213 -84.65096 894 ft 9 kts 91°
2026-04-30 00:52 39.05188 -84.65065 894 ft 3 kts 169°
2026-04-30 00:52 39.05159 -84.65065 894 ft 8 kts 181°
2026-04-30 00:53 39.05059 -84.65066 895 ft 19 kts 180°
2026-04-30 00:53 39.04917 -84.65067 895 ft 21 kts 180°
2026-04-30 00:53 39.04813 -84.65102 894 ft 14 kts 254°
2026-04-30 00:53 39.04810 -84.65250 891 ft 16 kts 268°
2026-04-30 00:54 39.04746 -84.65299 889 ft 6 kts 180°
2026-04-30 00:54 39.04735 -84.65299 889 ft 0 kts 180°
2026-04-30 00:55 39.04724 -84.65299 889 ft 3 kts 180°
2026-04-30 00:55 39.04668 -84.65299 888 ft 13 kts 181°
2026-04-30 00:55 39.04629 -84.65709 879 ft 75 kts 270°
2026-04-30 00:56 39.04632 -84.66719 882 ft 148 kts 270°
2026-04-30 00:56 39.04631 -84.68218 1358 ft 173 kts 272°
2026-04-30 00:56 39.04635 -84.69753 2464 ft 172 kts 275°
2026-04-30 00:56 39.04633 -84.71348 3205 ft 188 kts 275°
2026-04-30 00:57 39.04632 -84.73157 3745 ft 215 kts 274°
2026-04-30 00:57 39.04627 -84.75181 4388 ft 236 kts 273°
2026-04-30 00:57 39.04546 -84.77364 5153 ft 254 kts 259°
2026-04-30 00:57 39.03683 -84.79354 6270 ft 262 kts 229°
2026-04-30 00:58 39.02126 -84.80644 7240 ft 273 kts 202°
2026-04-30 00:58 39.00211 -84.80921 8258 ft 287 kts 177°
2026-04-30 00:58 38.98299 -84.80023 9234 ft 300 kts 157°
2026-04-30 00:58 38.96392 -84.78880 10084 ft 305 kts 164°
2026-04-30 00:59 38.94396 -84.77806 10695 ft 320 kts 164°
2026-04-30 00:59 38.92290 -84.76672 11242 ft 336 kts 164°
2026-04-30 00:59 38.90098 -84.75483 11884 ft 346 kts 164°
2026-04-30 00:59 38.87875 -84.74260 12738 ft 350 kts 164°
2026-04-30 01:00 38.85623 -84.73010 13556 ft 355 kts 165°
2026-04-30 01:00 38.83345 -84.71738 14297 ft 359 kts 165°
2026-04-30 01:00 38.81043 -84.70451 15009 ft 363 kts 165°
2026-04-30 01:00 38.78712 -84.69147 15715 ft 368 kts 165°
2026-04-30 01:01 38.76350 -84.67827 16394 ft 372 kts 164°
2026-04-30 01:01 38.73999 -84.66513 17053 ft 376 kts 164°
2026-04-30 01:01 38.71585 -84.65164 17714 ft 380 kts 164°
2026-04-30 01:01 38.69146 -84.63803 18344 ft 384 kts 165°
2026-04-30 01:02 38.66685 -84.62431 18898 ft 388 kts 165°
2026-04-30 01:02 38.64197 -84.61044 19475 ft 391 kts 165°
2026-04-30 01:02 38.61687 -84.59646 20029 ft 394 kts 165°
2026-04-30 01:02 38.59168 -84.58242 20600 ft 396 kts 166°
2026-04-30 01:03 38.56627 -84.56827 21143 ft 399 kts 166°
2026-04-30 01:03 38.54071 -84.55404 21693 ft 402 kts 166°
2026-04-30 01:03 38.51498 -84.53973 22226 ft 405 kts 166°
2026-04-30 01:03 38.48904 -84.52532 22768 ft 408 kts 166°
2026-04-30 01:04 38.46304 -84.51011 23268 ft 418 kts 159°
2026-04-30 01:04 38.43940 -84.48736 23826 ft 431 kts 148°
2026-04-30 01:04 38.41640 -84.46262 24185 ft 435 kts 149°
2026-04-30 01:04 38.39315 -84.43759 24562 ft 439 kts 148°
2026-04-30 01:05 38.36980 -84.41230 24964 ft 442 kts 148°
2026-04-30 01:05 38.34627 -84.38676 25336 ft 446 kts 148°
2026-04-30 01:05 38.32252 -84.36099 25704 ft 449 kts 149°
2026-04-30 01:05 38.29865 -84.33511 26075 ft 453 kts 149°
2026-04-30 01:06 38.27455 -84.30900 26435 ft 456 kts 149°
2026-04-30 01:06 38.25064 -84.28311 26786 ft 460 kts 149°
2026-04-30 01:06 38.22616 -84.25665 27142 ft 463 kts 149°
2026-04-30 01:06 38.20155 -84.23005 27482 ft 466 kts 149°
2026-04-30 01:07 38.17677 -84.20331 27827 ft 469 kts 149°
2026-04-30 01:07 38.15180 -84.17638 28165 ft 472 kts 149°
2026-04-30 01:07 38.12656 -84.14918 28504 ft 475 kts 149°
2026-04-30 01:07 38.10127 -84.12195 28831 ft 479 kts 149°
2026-04-30 01:08 38.07576 -84.09454 29151 ft 482 kts 149°
2026-04-30 01:08 38.05013 -84.06699 29461 ft 485 kts 149°
2026-04-30 01:08 38.02428 -84.03925 29779 ft 488 kts 149°
2026-04-30 01:08 37.99827 -84.01136 30080 ft 491 kts 149°
2026-04-30 01:09 37.97215 -83.98338 30336 ft 493 kts 149°
2026-04-30 01:09 37.94586 -83.95524 30622 ft 495 kts 149°
2026-04-30 01:09 37.91949 -83.92704 30900 ft 497 kts 149°
2026-04-30 01:09 37.89301 -83.89875 31160 ft 499 kts 149°
2026-04-30 01:10 37.86642 -83.87038 31417 ft 501 kts 149°
2026-04-30 01:10 37.83969 -83.84188 31684 ft 503 kts 149°
2026-04-30 01:10 37.81282 -83.81327 31947 ft 505 kts 149°
2026-04-30 01:10 37.78590 -83.78463 32220 ft 507 kts 149°
2026-04-30 01:11 37.75883 -83.75586 32445 ft 509 kts 149°
2026-04-30 01:11 37.73165 -83.72700 32709 ft 511 kts 149°
2026-04-30 01:11 37.70476 -83.69847 32931 ft 513 kts 149°
2026-04-30 01:11 37.67738 -83.66945 33178 ft 515 kts 149°
2026-04-30 01:12 37.64985 -83.64033 33427 ft 517 kts 149°
2026-04-30 01:12 37.62219 -83.61106 33669 ft 519 kts 149°
2026-04-30 01:12 37.59447 -83.58177 33933 ft 520 kts 150°
2026-04-30 01:12 37.56668 -83.55242 34215 ft 520 kts 150°
2026-04-30 01:13 37.53895 -83.52319 34495 ft 520 kts 150°
2026-04-30 01:13 37.51122 -83.49398 34766 ft 520 kts 150°
2026-04-30 01:13 37.48348 -83.46478 35046 ft 519 kts 150°
2026-04-30 01:13 37.45577 -83.43565 35315 ft 519 kts 150°
2026-04-30 01:14 37.42802 -83.40652 35569 ft 519 kts 150°
2026-04-30 01:14 37.40027 -83.37739 35811 ft 519 kts 150°
2026-04-30 01:14 37.37254 -83.34833 36048 ft 519 kts 150°
2026-04-30 01:14 37.34481 -83.31931 36302 ft 518 kts 150°
2026-04-30 01:15 37.31711 -83.29033 36538 ft 518 kts 150°
2026-04-30 01:15 37.28939 -83.26135 36747 ft 519 kts 150°
2026-04-30 01:15 37.26162 -83.23237 36934 ft 519 kts 150°
2026-04-30 01:15 37.23382 -83.20338 37000 ft 520 kts 150°
2026-04-30 01:16 37.17824 -83.14549 36956 ft 518 kts 151°
2026-04-30 01:16 37.12260 -83.08768 36899 ft 519 kts 151°
2026-04-30 01:17 37.06740 -83.03039 36963 ft 520 kts 151°
2026-04-30 01:17 37.01147 -82.97243 36890 ft 521 kts 151°
2026-04-30 01:18 36.95437 -82.91726 36907 ft 503 kts 165°
2026-04-30 01:18 36.92313 -82.90080 36974 ft 476 kts 178°
2026-04-30 01:18 36.89141 -82.89230 36902 ft 451 kts 192°
2026-04-30 01:19 36.86101 -82.89279 36943 ft 432 kts 199°
2026-04-30 01:19 36.83103 -82.89553 36931 ft 431 kts 201°
2026-04-30 01:19 36.77166 -82.90337 36950 ft 428 kts 202°
2026-04-30 01:20 36.71247 -82.91233 36903 ft 427 kts 203°
2026-04-30 01:20 36.65355 -82.92156 36900 ft 426 kts 203°
2026-04-30 01:21 36.59477 -82.93079 36909 ft 426 kts 203°
2026-04-30 01:21 36.53635 -82.93995 36900 ft 426 kts 203°
2026-04-30 01:22 36.47748 -82.94917 36906 ft 426 kts 203°
2026-04-30 01:22 36.41871 -82.95836 36914 ft 426 kts 203°
2026-04-30 01:23 36.35984 -82.96755 36924 ft 426 kts 204°
2026-04-30 01:23 36.30104 -82.97672 36940 ft 426 kts 203°
2026-04-30 01:24 36.24239 -82.98615 36939 ft 425 kts 204°
2026-04-30 01:24 36.18364 -82.99563 36942 ft 426 kts 204°
2026-04-30 01:25 36.12485 -83.00510 36932 ft 426 kts 204°
2026-04-30 01:25 36.06607 -83.01455 36923 ft 426 kts 204°
2026-04-30 01:26 36.00723 -83.02400 36926 ft 427 kts 204°
2026-04-30 01:26 35.94828 -83.03345 36921 ft 427 kts 203°
2026-04-30 01:27 35.88931 -83.04289 36891 ft 427 kts 204°
2026-04-30 01:27 35.83068 -83.05226 36896 ft 428 kts 203°
2026-04-30 01:28 35.77278 -83.06487 36853 ft 399 kts 218°
2026-04-30 01:28 35.72287 -83.09229 36888 ft 393 kts 220°
2026-04-30 01:29 35.67324 -83.12050 36930 ft 394 kts 221°
2026-04-30 01:29 35.62333 -83.14935 36890 ft 396 kts 220°
2026-04-30 01:30 35.57377 -83.17807 36907 ft 397 kts 220°
2026-04-30 01:30 35.52389 -83.20695 36895 ft 395 kts 220°
2026-04-30 01:31 35.47421 -83.23566 36775 ft 391 kts 220°
2026-04-30 01:31 35.44962 -83.24987 36181 ft 391 kts 221°
2026-04-30 01:31 35.42479 -83.26401 35471 ft 394 kts 219°
2026-04-30 01:32 35.39992 -83.27804 34971 ft 391 kts 219°
2026-04-30 01:32 35.37535 -83.29195 34558 ft 386 kts 219°
2026-04-30 01:32 35.35103 -83.30573 34066 ft 384 kts 219°
2026-04-30 01:32 35.32681 -83.31943 33515 ft 383 kts 219°
2026-04-30 01:33 35.30304 -83.33286 33008 ft 379 kts 219°
2026-04-30 01:33 35.27919 -83.34633 32537 ft 376 kts 218°
2026-04-30 01:33 35.25551 -83.35969 32066 ft 373 kts 218°
2026-04-30 01:33 35.23203 -83.37294 31583 ft 370 kts 218°
2026-04-30 01:34 35.20872 -83.38608 31117 ft 368 kts 218°
2026-04-30 01:34 35.18558 -83.39912 30658 ft 365 kts 218°
2026-04-30 01:34 35.16263 -83.41204 30220 ft 362 kts 218°
2026-04-30 01:34 35.13982 -83.42488 29745 ft 360 kts 217°
2026-04-30 01:35 35.11716 -83.43763 29249 ft 357 kts 217°
2026-04-30 01:35 35.09471 -83.45025 28823 ft 353 kts 217°
2026-04-30 01:35 35.07994 -83.45856 28544 ft 352 kts 217°
2026-04-30 01:35 35.05042 -83.47558 27878 ft 350 kts 218°
2026-04-30 01:36 35.03588 -83.48397 27641 ft 348 kts 217°
2026-04-30 01:36 35.01410 -83.49652 27262 ft 345 kts 218°
2026-04-30 01:36 34.99251 -83.50895 26873 ft 342 kts 217°
2026-04-30 01:36 34.97101 -83.52133 26461 ft 341 kts 217°
2026-04-30 01:37 34.94960 -83.53363 26081 ft 339 kts 217°
2026-04-30 01:37 34.92833 -83.54585 25711 ft 336 kts 217°
2026-04-30 01:37 34.90722 -83.55798 25337 ft 334 kts 217°
2026-04-30 01:37 34.88626 -83.57001 24964 ft 332 kts 217°
2026-04-30 01:38 34.86545 -83.58195 24615 ft 331 kts 217°
2026-04-30 01:38 34.84439 -83.59404 24229 ft 336 kts 216°
2026-04-30 01:38 34.82308 -83.60625 23856 ft 340 kts 216°
2026-04-30 01:38 34.80157 -83.61856 23478 ft 341 kts 216°
2026-04-30 01:39 34.78035 -83.63070 23053 ft 341 kts 216°
2026-04-30 01:39 34.75896 -83.64294 22661 ft 339 kts 215°
2026-04-30 01:39 34.73771 -83.65508 22287 ft 336 kts 214°
2026-04-30 01:39 34.71666 -83.66711 21931 ft 333 kts 214°
2026-04-30 01:40 34.69578 -83.67903 21574 ft 330 kts 214°
2026-04-30 01:40 34.67507 -83.69085 21227 ft 328 kts 214°
2026-04-30 01:40 34.65450 -83.70259 20874 ft 326 kts 213°
2026-04-30 01:40 34.63403 -83.71428 20514 ft 324 kts 213°
2026-04-30 01:41 34.61365 -83.72593 20127 ft 323 kts 213°
2026-04-30 01:41 34.59340 -83.73751 19803 ft 320 kts 212°
2026-04-30 01:41 34.57336 -83.74896 19468 ft 317 kts 212°
2026-04-30 01:41 34.55345 -83.76034 19140 ft 315 kts 212°
2026-04-30 01:42 34.53366 -83.77164 18807 ft 313 kts 212°
2026-04-30 01:42 34.51398 -83.78287 18477 ft 312 kts 211°
2026-04-30 01:42 34.49436 -83.79406 18132 ft 311 kts 211°
2026-04-30 01:42 34.47489 -83.80516 17750 ft 309 kts 211°
2026-04-30 01:43 34.45551 -83.81620 17425 ft 306 kts 211°
2026-04-30 01:43 34.43633 -83.82712 17108 ft 303 kts 211°
2026-04-30 01:43 34.41740 -83.83790 16823 ft 300 kts 211°
2026-04-30 01:43 34.39839 -83.84872 16511 ft 304 kts 210°
2026-04-30 01:44 34.37904 -83.85971 16187 ft 309 kts 210°
2026-04-30 01:44 34.35954 -83.87079 15865 ft 310 kts 210°
2026-04-30 01:44 34.34005 -83.88186 15545 ft 309 kts 210°
2026-04-30 01:44 34.32096 -83.89348 15188 ft 306 kts 212°